Orbital Elements at Epoch 2459000.5 (2020-May-31.0) TDB
Reference: JPL 17 (heliocentric ecliptic J2000)
Element | Value | Uncertainty (1-sigma) | Units |
e | .1261366067230507 | 5.1016e-08 | |
a | 2.279376530596477 | 1.1135e-08 | au |
q | 1.991863709582877 | 1.1576e-07 | au |
i | 6.946360914857268 | 5.3207e-06 | deg |
node | 145.9590345496296 | 4.2803e-05 | deg |
peri | 81.91556220325697 | 4.8269e-05 | deg |
M | 355.5184995072103 | 2.0164e-05 | deg |
tp | 2459016.147446777752 (2020-Jun-15.64744678) | 7.0383e-05 | TDB |
period | 1256.963119618938 3.44 | 9.211e-06 2.522e-08 | d yr |
n | .2864045844949993 | 2.0988e-09 | deg/d |
Q | 2.566889351610077 | 1.254e-08 | au |
|
| | Orbit Determination Parameters
Additional Information
|